• In Österreich
  • Länderverzeichnis
  • Für 7 Tage
  • Wassertemperatur
  • Satellitenkarten
  • Wetterkarte
  • News
  • Widgets
  • user-avatar
    Anmelden

    Stündliche Wetter Constantine

    Heute, 17 Februar, Samstag

    Zeit Temperatur Niederschläge Wind Luftdruck Luftfeuchtigkeit
    00:00 +12°C° 0 mm 2 m/S 713 mmHg 68%
    01:00 +12°C° 0 mm 2 m/S 713 mmHg 67%
    02:00 +10°C° 0 mm 2 m/S 712 mmHg 66%
    03:00 +10°C° 0 mm 2 m/S 712 mmHg 65%
    04:00 +10°C° 0 mm 2 m/S 712 mmHg 67%
    05:00 +10°C° 0 mm 2 m/S 712 mmHg 68%
    06:00 +10°C° 0 mm 2 m/S 712 mmHg 71%
    07:00 +10°C° 0,1 mm 2 m/S 712 mmHg 71%
    08:00 +12°C° 0,1 mm 2 m/S 712 mmHg 70%
    09:00 +13°C° 0,1 mm 2 m/S 712 mmHg 70%
    10:00 +13°C° 0,2 mm 2 m/S 712 mmHg 70%
    11:00 +14°C° 0,2 mm 2 m/S 712 mmHg 69%
    12:00 +14°C° 0 mm 2 m/S 712 mmHg 69%
    13:00 +14°C° 0,4 mm 2 m/S 711 mmHg 73%
    14:00 +13°C° 0,4 mm 2 m/S 711 mmHg 76%
    15:00 +13°C° 0,4 mm 2 m/S 711 mmHg 79%
    16:00 +12°C° 0,5 mm 1 m/S 710 mmHg 83%
    17:00 +12°C° 0,5 mm 1 m/S 710 mmHg 88%
    18:00 +11°C° 0,5 mm 1 m/S 710 mmHg 92%
    19:00 +11°C° 0,3 mm 1 m/S 710 mmHg 93%
    20:00 +11°C° 0,3 mm 1 m/S 710 mmHg 93%
    21:00 +10°C° 0,3 mm 1 m/S 711 mmHg 94%
    22:00 +10°C° 0,2 mm 1 m/S 710 mmHg 94%
    23:00 +10°C° 0,2 mm 1 m/S 710 mmHg 94%

    Morgen, 18 Februar, Sonntag

    Zeit Temperatur Niederschläge Wind Luftdruck Luftfeuchtigkeit
    00:00 +10°C° 0,2 mm 1 m/S 710 mmHg 94%
    01:00 +10°C° 0,1 mm 1 m/S 710 mmHg 94%
    02:00 +10°C° 0,1 mm 1 m/S 710 mmHg 94%
    03:00 +10°C° 0,1 mm 1 m/S 710 mmHg 94%
    04:00 +10°C° 0,1 mm 1 m/S 710 mmHg 94%
    05:00 +9°C° 0,1 mm 1 m/S 710 mmHg 94%
    06:00 +9°C° 0,1 mm 1 m/S 709 mmHg 95%
    07:00 +10°C° 0,1 mm 1 m/S 710 mmHg 91%
    08:00 +11°C° 0,1 mm 1 m/S 710 mmHg 87%
    09:00 +11°C° 0,1 mm 1 m/S 710 mmHg 83%
    10:00 +12°C° 0,4 mm 2 m/S 710 mmHg 81%
    11:00 +13°C° 0,4 mm 2 m/S 710 mmHg 79%
    12:00 +12°C° 0,4 mm 3 m/S 710 mmHg 77%
    13:00 +12°C° 0,9 mm 3 m/S 710 mmHg 81%
    14:00 +11°C° 0,9 mm 4 m/S 710 mmHg 85%
    15:00 +10°C° 0,9 mm 4 m/S 709 mmHg 88%
    16:00 +10°C° 0,3 mm 4 m/S 710 mmHg 89%
    17:00 +9°C° 0,3 mm 3 m/S 710 mmHg 91%
    18:00 +8°C° 0,3 mm 3 m/S 710 mmHg 92%
    19:00 +8°C° 0,1 mm 2 m/S 710 mmHg 91%
    20:00 +8°C° 0,1 mm 2 m/S 710 mmHg 90%
    21:00 +9°C° 0,1 mm 1 m/S 710 mmHg 89%
    22:00 +8°C° 0 mm 1 m/S 710 mmHg 90%
    23:00 +8°C° 0 mm 1 m/S 710 mmHg 91%

    übermorgen, 19 Februar, Montag

    Zeit Temperatur Niederschläge Wind Luftdruck Luftfeuchtigkeit
    00:00 +8°C° 0 mm 1 m/S 710 mmHg 91%
    01:00 +7°C° 0 mm 1 m/S 709 mmHg 92%
    02:00 +7°C° 0 mm 1 m/S 709 mmHg 93%
    03:00 +5°C° 0 mm 0 m/S 708 mmHg 94%
    04:00 +5°C° 0 mm 0 m/S 708 mmHg 95%
    05:00 +6°C° 0 mm 1 m/S 708 mmHg 95%
    06:00 +6°C° 0 mm 1 m/S 708 mmHg 95%
    07:00 +7°C° 0,1 mm 1 m/S 708 mmHg 90%
    08:00 +8°C° 0,1 mm 1 m/S 709 mmHg 86%
    09:00 +9°C° 0,1 mm 1 m/S 709 mmHg 81%
    10:00 +10°C° 0,1 mm 1 m/S 709 mmHg 77%
    11:00 +10°C° 0,1 mm 1 m/S 709 mmHg 73%
    12:00 +11°C° 0,1 mm 1 m/S 709 mmHg 69%
    13:00 +10°C° 0,1 mm 2 m/S 708 mmHg 69%
    14:00 +10°C° 0,1 mm 2 m/S 708 mmHg 68%
    15:00 +10°C° 0,1 mm 3 m/S 707 mmHg 68%
    16:00 +9°C° 0 mm 2 m/S 707 mmHg 73%
    17:00 +8°C° 0 mm 2 m/S 707 mmHg 77%
    18:00 +7°C° 0 mm 2 m/S 707 mmHg 82%
    19:00 +8°C° 0 mm 1 m/S 707 mmHg 84%
    20:00 +7°C° 0 mm 1 m/S 708 mmHg 85%
    21:00 +7°C° 0 mm 1 m/S 708 mmHg 87%
    22:00 +7°C° 0,2 mm 1 m/S 707 mmHg 87%
    23:00 +6°C° 0,2 mm 1 m/S 707 mmHg 88%

    20 Februar, Dienstag

    Zeit Temperatur Niederschläge Wind Luftdruck Luftfeuchtigkeit
    00:00 +6°C° 0,2 mm 1 m/S 707 mmHg 89%
    01:00 +6°C° 0,3 mm 1 m/S 707 mmHg 88%
    02:00 +6°C° 0,3 mm 1 m/S 706 mmHg 88%
    03:00 +5°C° 0,3 mm 0 m/S 706 mmHg 88%
    04:00 +5°C° 0,1 mm 0 m/S 706 mmHg 88%
    05:00 +5°C° 0,1 mm 0 m/S 706 mmHg 88%
    06:00 +4°C° 0,1 mm 0 m/S 706 mmHg 88%
    07:00 +6°C° 0 mm 1 m/S 706 mmHg 83%
    08:00 +8°C° 0 mm 1 m/S 706 mmHg 78%
    09:00 +9°C° 0 mm 1 m/S 707 mmHg 73%
    10:00 +8°C° 0,1 mm 2 m/S 706 mmHg 71%
    11:00 +9°C° 0,1 mm 2 m/S 706 mmHg 69%
    12:00 +9°C° 0,1 mm 3 m/S 706 mmHg 68%
    13:00 +8°C° 0,4 mm 4 m/S 706 mmHg 70%
    14:00 +7°C° 0,4 mm 4 m/S 705 mmHg 72%
    15:00 +7°C° 0,4 mm 5 m/S 705 mmHg 74%
    16:00 +6°C° 0,2 mm 4 m/S 705 mmHg 77%
    17:00 +5°C° 0,2 mm 4 m/S 705 mmHg 81%
    18:00 +4°C° 0,2 mm 3 m/S 705 mmHg 84%
    19:00 +4°C° 0 mm 3 m/S 705 mmHg 85%
    20:00 +4°C° 0 mm 2 m/S 705 mmHg 87%
    21:00 +4°C° 0 mm 2 m/S 705 mmHg 88%
    22:00 +4°C° 0,1 mm 2 m/S 705 mmHg 89%
    23:00 +4°C° 0,1 mm 2 m/S 705 mmHg 89%

    21 Februar, Mittwoch

    Zeit Temperatur Niederschläge Wind Luftdruck Luftfeuchtigkeit
    00:00 +3°C° 0,1 mm 3 m/S 704 mmHg 89%
    01:00 +3°C° 0,1 mm 3 m/S 704 mmHg 89%
    02:00 +2°C° 0,1 mm 3 m/S 703 mmHg 89%
    03:00 +2°C° 0,1 mm 3 m/S 703 mmHg 90%
    04:00 +2°C° 0 mm 3 m/S 703 mmHg 89%
    05:00 +2°C° 0 mm 3 m/S 702 mmHg 89%
    06:00 +2°C° 0 mm 3 m/S 702 mmHg 88%
    07:00 +3°C° 0,1 mm 3 m/S 702 mmHg 81%
    08:00 +5°C° 0,1 mm 3 m/S 702 mmHg 74%
    09:00 +7°C° 0,1 mm 3 m/S 702 mmHg 67%
    10:00 +8°C° 0,3 mm 3 m/S 702 mmHg 66%
    11:00 +9°C° 0,3 mm 3 m/S 702 mmHg 65%
    12:00 +9°C° 0,3 mm 3 m/S 702 mmHg 64%
    13:00 +9°C° 0,2 mm 3 m/S 701 mmHg 66%
    14:00 +9°C° 0,2 mm 3 m/S 701 mmHg 68%
    15:00 +9°C° 0,2 mm 3 m/S 700 mmHg 70%
    16:00 +8°C° 0,2 mm 2 m/S 700 mmHg 74%
    17:00 +7°C° 0,2 mm 2 m/S 700 mmHg 79%
    18:00 +7°C° 0,2 mm 1 m/S 700 mmHg 83%
    19:00 +7°C° 0,1 mm 1 m/S 700 mmHg 82%
    20:00 +7°C° 0,1 mm 1 m/S 700 mmHg 81%
    21:00 +6°C° 0,1 mm 2 m/S 700 mmHg 79%
    22:00 +6°C° 0,3 mm 2 m/S 699 mmHg 80%
    23:00 +6°C° 0,3 mm 2 m/S 699 mmHg 80%

    22 Februar, Donnerstag

    Zeit Temperatur Niederschläge Wind Luftdruck Luftfeuchtigkeit
    00:00 +6°C° 0,3 mm 2 m/S 699 mmHg 80%
    01:00 +5°C° 0,4 mm 2 m/S 699 mmHg 83%
    02:00 +5°C° 0,4 mm 2 m/S 698 mmHg 86%
    03:00 +5°C° 0,4 mm 2 m/S 698 mmHg 90%
    04:00 +5°C° 0,2 mm 2 m/S 698 mmHg 90%
    05:00 +6°C° 0,2 mm 1 m/S 698 mmHg 90%
    06:00 +6°C° 0,2 mm 1 m/S 697 mmHg 90%
    07:00 +6°C° 0,1 mm 2 m/S 698 mmHg 84%
    08:00 +7°C° 0,1 mm 2 m/S 698 mmHg 77%
    09:00 +8°C° 0,1 mm 2 m/S 698 mmHg 70%
    10:00 +9°C° 0,2 mm 3 m/S 698 mmHg 65%
    11:00 +10°C° 0,2 mm 3 m/S 698 mmHg 60%
    12:00 +11°C° 0,2 mm 3 m/S 698 mmHg 54%
    13:00 +11°C° 0,7 mm 4 m/S 698 mmHg 57%
    14:00 +10°C° 0,7 mm 4 m/S 697 mmHg 59%
    15:00 +10°C° 0,7 mm 4 m/S 697 mmHg 61%
    16:00 +8°C° 0,5 mm 4 m/S 698 mmHg 66%
    17:00 +8°C° 0,5 mm 3 m/S 698 mmHg 71%
    18:00 +7°C° 0,5 mm 2 m/S 698 mmHg 75%
    19:00 +7°C° 0,1 mm 2 m/S 698 mmHg 76%
    20:00 +6°C° 0,1 mm 2 m/S 699 mmHg 78%
    21:00 +5°C° 0,1 mm 2 m/S 699 mmHg 79%
    22:00 +5°C° 0 mm 2 m/S 699 mmHg 79%
    23:00 +4°C° 0 mm 2 m/S 699 mmHg 79%
    Mehr zeigen